Tracking 20623 objects as of 5-Apr-2020
HD Live streaming from Space Station
objects crossing your sky now

BLOCK DM-SL R/B

Track BLOCK DM-SL R/B now!


NORAD ID: 38357
Int'l Code: 2012-030B
Perigee: 772.7 km
Apogee: 35,638.8 km
Inclination: 0.2 °
Period: 639.1 minutes
Semi major axis: 24576 km
RCS: 20.6934 m2 (large)
Launch date: June 1, 2012
Source: Sea Launch (SEAL)
Launch site: SEA LAUNCH (SEAL)

Note: This is a ROCKET BODY
aabbcc
Your satellite tracking list
Your tracking list is empty




NASA's NSSDC Master Catalog

Two Line Element Set (TLE):
1 38357U 12030B   20095.10989532  .00000000  00000-0 -14968-2 0  9996
2 38357   0.1722 335.8745 7093314 318.7669   9.6644  2.25328452 64701
Source of the keplerian elements: AFSPC